WILDTRACKCUBE-SIMBA

Last updated on Sun Dec 14 2025 00:03:50 GMT+0000 (Coordinated Universal Time)

1 47941U 21022K 25347.29664646 .00145290 00000+0 13418-2 0 9995 2 47941 97.4051 257.9959 0006633 25.4749 334.6837 15.67091328262172
UTC large
Height (km)
Speed (km/s)
/
Latitude / Longitude
Inclination (degrees)
Orbital Period (minutes)
Azimuth
Elevation
Range (km)
Doppler Factor

Next 0 passes for location: London (51.5072 / 0.1276)

Sorry there are no passes over London.